STARLINK-4545 (53421 NORAD) Tracking and Keplerian Element Data

This shows tracking and keplerian element data for the satellite.

Feedback or suggestion? Click here.




ElementValue
Catalog53421
NameSTARLINK-4545
Epoch Orbit797
Epoch Day270.25001157
Epoch Year2022
RAAN11.492
Inclination53.2183
Eccentricity0.0002023
Argument of Perigee42.0439
Mean Anonmoly231.0771
Mean Motion15.49890706
Decay Rate0.00044528
L11 53421U 22097AK 22270.25001157 .00044528 00000+0 78785-3 0 9999
L22 53421 53.2183 11.4920 0002023 42.0439 231.0771 15.49890706 7978

Live tracking and technical data element details for STARLINK-4545 (NORAD 53421). STARLINK-4545 can be tracked NOW for your location showing map with azimuth and elevation plus other details from your city location.

Track the satellite on the map from your city or location and see movement details for azimuth, elevation, latitude, longitude, range, height, and movement on the map or in text.







IsCatalogInMostPopularTable: catalog: 53421, numindb: 2
Update: records affected: 1



GetName: 53421 STARLINK-4545

Hit Count: updated at: Wed, 28 Sep 2022 23:17:45 GMT